Погода в Игнатьевском

Россия / Республика Адыгея     44°50′52″N   40°27′02″E
темп.,
°C
ветер,
м/с
пор.,
м/с
влажн.,
%
обл.,
%
осадки,
мм/ч
давл.,
гПа
погр.,
м
13 июня, вс
вс1300:00+16зюз229164 0.1 101316
03:00+15юз229586 0.7 101337
06:00+15зюз239535 1.5 1013116
09:00+20ссз22835 3.3 1013297
12:00+22с226966 4.3 1012909
15:00+24с2263100 5.4 10121265
18:00+22юз017584 1.8 101235
21:00+17ю338210 2.6 101321
14 июня, пн
пн1400:00+16ююз22870 0.0 101212
03:00+15ю22904 0.0 101213
06:00+16юв24909 0.0 1012106
09:00+22в457325 0.0 1011620
12:00+25всв566215 0.0 10111466
15:00+26в4559100 0.0 10101822
18:00+23в487717 0.4 1010411
21:00+19в4119096 0.5 1009223
15 июня, вт
вт1500:00+18всв5129197 0.0 1007266
03:00+18всв3585100 0.0 1007128
06:00+18в268934 0.2 1008281
09:00+22в237748 0.6 1009729
12:00+25сз346663 0.0 10091226
15:00+26ссз446540 0.1 10091053
18:00+25с23750 0.2 1009483
21:00+20ссз11880 1.1 100911
16 июня, ср
ср1600:00+19ююз11925 0.0 100811
03:00+18ююв22943 0.0 100719
06:00+18з4597100 2.8 1008242
09:00+16з51098100 3.6 1009386
12:00+20зсз358781 0.3 1010672
15:00+23сз457596 0.5 1010883
18:00+21ссз358199 0.1 1011190
21:00+19ссв228476 0.1 101228
17 июня, чт
чт1700:00+17всв22941 0.0 101241
03:00+16всв24961 0.0 101173
06:00+17всв259487 0.1 1011178
09:00+19св2492100 3.4 1011409
12:00+19с448799 4.4 1011608
15:00+18сз4594100 8.8 1013446
18:00+19зюз2483100 0.8 1014644
21:00+16з37950 0.8 1015150